N7DTY Weather Reports


time (UTC)temp
C
wind
direction
speed
KPH
gust
KPH
rain 1hr
cm
rain 24hr
cm
rain mn
cm
humidity
%
barometer
mb
20260503000026 20 180 1.6 8.0 0.00 0.00 0.00 67 1014.2
20260502234534 20 185 3.2 9.7 0.00 0.00 0.00 67 1014.3
20260502233025 21 288 1.6 11.3 0.00 0.00 0.00 64 1014.4
20260502231525 23 342 4.8 9.7 0.00 0.00 0.00 46 1014.6
20260502230021 23 328 4.8 9.7 0.00 0.00 0.00 49 1014.7
20260502224519 23 5 3.2 9.7 0.00 0.00 0.00 49 1014.9
20260502223018 22 360 4.8 12.9 0.00 0.00 0.00 53 1015.0
20260502221518 22 257 4.8 12.9 0.00 0.00 0.00 49 1015.2
20260502220016 22 40 1.6 6.4 0.00 0.00 0.00 54 1015.4
20260502214531 22 42 1.6 8.0 0.00 0.00 0.00 57 1015.5
20260502213012 21 38 3.2 8.0 0.00 0.00 0.00 55 1015.6
20260502211517 21 239 3.2 6.4 0.00 0.00 0.00 54 1015.7
20260502210021 22 24 3.2 6.4 0.00 0.00 0.00 52 1016.0
20260502204512 21 360 1.6 14.5 0.00 0.00 0.00 57 1016.0
20260502203012 20 325 4.8 14.5 0.00 0.00 0.00 59 1016.2
20260502201508 21 355 3.2 9.7 0.00 0.00 0.00 63 1016.2
20260502200006 20 192 1.6 9.7 0.00 0.00 0.00 66 1016.3
20260502194504 20 275 1.6 12.9 0.00 0.00 0.00 65 1016.4
20260502193003 20 342 1.6 9.7 0.00 0.00 0.00 68 1016.5
20260502191505 20 200 4.8 9.7 0.00 0.00 0.00 69 1016.4
20260502190100 21 182 1.6 9.7 0.00 0.00 0.00 63 1016.5
20260502184604 21 11 6.4 17.7 0.00 0.00 0.00 52 1016.4
20260502183055 21 43 3.2 14.5 0.00 0.00 0.00 54 1016.5
20260502181553 20 18 6.4 14.5 0.00 0.00 0.00 57 1016.6
20260502180104 20 28 3.2 12.9 0.00 0.00 0.00 58 1016.8
20260502163031 16 331 9.7 14.5 0.00 0.00 0.00 78 1017.1
20260502161525 15 16 3.2 14.5 0.00 0.00 0.00 81 1017.2
20260502151512 12 24 0.0 6.4 0.00 0.00 0.00 89 1017.6
20260502123051 11 159 0.0 1.6 0.00 0.00 0.00 92 1016.3
20260502121552 11 159 0.0 1.6 0.00 0.00 0.00 91 1016.3
20260502114547 11 192 0.0 4.8 0.00 0.00 0.00 91 1016.1
20260502113045 11 148 0.0 4.8 0.00 0.00 0.00 90 1016.1
20260502111558 11 153 0.0 4.8 0.00 0.00 0.00 90 1015.9
20260502110043 11 153 0.0 1.6 0.00 0.00 0.00 88 1015.9
20260502104541 11 153 0.0 1.6 0.00 0.00 0.00 87 1015.8
20260502103057 12 153 0.0 0.0 0.00 0.00 0.00 86 1015.9
20260502101538 12 153 0.0 3.2 0.00 0.00 0.00 86 1015.8
20260502071529 12 144 0.0 3.2 0.00 0.00 0.00 86 1015.7
20260502070026 12 165 0.0 0.0 0.00 0.00 0.00 86 1015.6
20260502064526 12 165 0.0 0.0 0.00 0.00 0.00 85 1015.6
20260502063029 12 165 0.0 0.0 0.00 0.00 0.00 85 1015.5
20260502061524 12 165 0.0 0.0 0.00 0.00 0.00 83 1015.6
20260502060024 12 165 0.0 0.0 0.00 0.00 0.00 84 1015.4
20260502054532 12 165 0.0 0.0 0.00 0.00 0.00 85 1015.3
20260502053023 12 165 0.0 0.0 0.00 0.00 0.00 85 1015.5
20260502051522 12 183 0.0 0.0 0.00 0.00 0.00 86 1015.6
20260502050026 12 183 0.0 3.2 0.00 0.00 0.00 87 1015.7
20260502044522 12 183 0.0 3.2 0.00 0.00 0.00 87 1015.6
20260502043021 12 184 0.0 0.0 0.00 0.00 0.00 87 1015.2
20260502041521 12 184 0.0 0.0 0.00 0.00 0.00 85 1015.1
20260502040020 13 184 0.0 3.2 0.00 0.00 0.00 85 1015.0
20260502034519 13 184 0.0 1.6 0.00 0.00 0.00 84 1014.8
20260502033018 13 178 0.0 3.2 0.00 0.00 0.00 82 1014.8
20260502031521 14 178 0.0 1.6 0.00 0.00 0.00 80 1014.5
20260502030018 15 178 0.0 0.0 0.00 0.00 0.00 78 1014.5
20260502024517 15 178 0.0 3.2 0.00 0.00 0.00 76 1014.4
20260502023017 15 178 0.0 6.4 0.00 0.00 0.00 73 1014.4
20260502021517 16 185 1.6 6.4 0.00 0.00 0.00 71 1014.4
20260502020016 17 182 1.6 6.4 0.00 0.00 0.00 66 1014.3
20260502014525 17 200 0.0 3.2 0.00 0.00 0.00 62 1014.4
20260502013014 17 288 0.0 6.4 0.00 0.00 0.00 61 1014.4
20260502011513 17 316 0.0 6.4 0.00 0.00 0.00 59 1014.5
20260502010013 18 344 1.6 6.4 0.00 0.00 0.00 58 1014.5
20260502004527 18 341 1.6 8.0 0.00 0.00 0.00 58 1014.5
20260502003010 19 146 1.6 9.7 0.00 0.00 0.00 60 1014.6
20260502001510 19 350 1.6 6.4 0.00 0.00 0.00 60 1014.6